| time (UTC) | temp F | wind direction | speed knots | gust knots | rain 1hr in | rain 24hr in | rain mn in | humidity % | barometer mb |
| 20260506185125 | 53 | 30 | 1.7 | 3.5 | 0.00 | 0.00 | 0.00 | 59 | 1010.0 |
| 20260506184124 | 54 | 37 | 2.6 | 3.5 | 0.00 | 0.00 | 0.00 | 58 | 1009.9 |
| 20260506183124 | 54 | 36 | 2.6 | 3.5 | 0.00 | 0.00 | 0.00 | 56 | 1009.7 |
| 20260506182124 | 56 | 57 | 1.7 | 4.3 | 0.00 | 0.00 | 0.00 | 54 | 1009.6 |
| 20260506181124 | 55 | 34 | 2.6 | 4.3 | 0.00 | 0.00 | 0.00 | 57 | 1009.6 |
| 20260506180123 | 56 | 31 | 0.9 | 2.6 | 0.00 | 0.00 | 0.00 | 51 | 1009.5 |
| 20260506175125 | 55 | 32 | 1.7 | 3.5 | 0.00 | 0.00 | 0.00 | 54 | 1009.5 |
| 20260506174125 | 58 | 27 | 0.9 | 2.6 | 0.00 | 0.00 | 0.00 | 48 | 1009.3 |
| 20260506173125 | 60 | 248 | 0.9 | 4.3 | 0.00 | 0.00 | 0.00 | 44 | 1009.4 |
| 20260506172124 | 61 | 10 | 0.9 | 2.6 | 0.00 | 0.00 | 0.00 | 43 | 1009.4 |
| 20260506171124 | 66 | 41 | 0.0 | 3.5 | 0.00 | 0.00 | 0.00 | 39 | 1009.4 |
| 20260506170124 | 60 | 131 | 1.7 | 4.3 | 0.00 | 0.00 | 0.00 | 44 | 1009.6 |
| 20260506165125 | 60 | 14 | 0.0 | 0.9 | 0.00 | 0.00 | 0.00 | 46 | 1009.6 |
| 20260506164125 | 58 | 84 | 0.0 | 0.9 | 0.00 | 0.00 | 0.00 | 47 | 1009.7 |
| 20260506163125 | 59 | 57 | 0.0 | 0.9 | 0.00 | 0.00 | 0.00 | 45 | 1009.5 |
| 20260506162124 | 60 | 60 | 0.0 | 0.9 | 0.00 | 0.00 | 0.00 | 44 | 1009.5 |
| 20260506161124 | 60 | 238 | 0.0 | 1.7 | 0.00 | 0.00 | 0.00 | 45 | 1009.5 |
| 20260506160124 | 63 | 9 | 0.0 | 0.9 | 0.00 | 0.00 | 0.00 | 40 | 1009.6 |
| 20260506155124 | 63 | 239 | 0.9 | 4.3 | 0.00 | 0.00 | 0.00 | 38 | 1009.5 |
| 20260506154125 | 62 | 213 | 0.0 | 0.9 | 0.00 | 0.00 | 0.00 | 34 | 1009.5 |
| 20260506153125 | 62 | 213 | 0.0 | 1.7 | 0.00 | 0.00 | 0.00 | 33 | 1009.5 |
| 20260506152125 | 65 | 141 | 0.0 | 0.9 | 0.00 | 0.00 | 0.00 | 34 | 1009.6 |
| 20260506151125 | 61 | 157 | 0.0 | 1.7 | 0.00 | 0.00 | 0.00 | 35 | 1009.6 |
| 20260506150124 | 62 | 84 | 0.0 | 1.7 | 0.00 | 0.00 | 0.00 | 34 | 1009.8 |
| 20260506145124 | 61 | 217 | 0.0 | 0.9 | 0.00 | 0.00 | 0.00 | 36 | 1009.7 |
| 20260506144124 | 59 | 217 | 0.9 | 2.6 | 0.00 | 0.00 | 0.00 | 36 | 1009.8 |
| 20260506143125 | 60 | 91 | 0.9 | 3.5 | 0.00 | 0.00 | 0.00 | 36 | 1009.8 |
| 20260506142125 | 65 | 90 | 0.9 | 4.3 | 0.00 | 0.00 | 0.00 | 30 | 1009.9 |
| 20260506141125 | 60 | 216 | 0.9 | 3.5 | 0.00 | 0.00 | 0.00 | 34 | 1010.2 |
| 20260506140124 | 63 | 224 | 0.0 | 1.7 | 0.00 | 0.00 | 0.00 | 29 | 1010.2 |
| 20260506135124 | 60 | 237 | 0.9 | 3.5 | 0.00 | 0.00 | 0.00 | 33 | 1010.3 |
| 20260506134124 | 62 | 232 | 1.7 | 4.3 | 0.00 | 0.00 | 0.00 | 34 | 1010.3 |
| 20260506133124 | 67 | 281 | 0.9 | 2.6 | 0.00 | 0.00 | 0.00 | 28 | 1010.3 |
| 20260506132125 | 71 | 359 | 0.0 | 1.7 | 0.00 | 0.00 | 0.00 | 25 | 1010.4 |
| 20260506131125 | 65 | 228 | 0.0 | 2.6 | 0.00 | 0.00 | 0.00 | 30 | 1010.5 |
| 20260506130125 | 66 | 246 | 0.0 | 0.0 | 0.00 | 0.00 | 0.00 | 31 | 1010.5 |
| 20260506125124 | 61 | 288 | 1.7 | 3.5 | 0.00 | 0.00 | 0.00 | 30 | 1010.6 |
| 20260506124124 | 67 | 72 | 0.9 | 4.3 | 0.00 | 0.00 | 0.00 | 28 | 1010.6 |
| 20260506123124 | 60 | 230 | 0.0 | 0.9 | 0.00 | 0.00 | 0.00 | 36 | 1010.8 |
| 20260506122124 | 59 | 227 | 0.0 | 2.6 | 0.00 | 0.00 | 0.00 | 36 | 1010.8 |
| 20260506121125 | 58 | 84 | 1.7 | 5.2 | 0.00 | 0.00 | 0.00 | 35 | 1010.9 |
| 20260506120125 | 64 | 98 | 0.0 | 3.5 | 0.00 | 0.00 | 0.00 | 33 | 1010.8 |
| 20260506115125 | 58 | 138 | 0.9 | 5.2 | 0.00 | 0.00 | 0.00 | 38 | 1011.1 |
| 20260506114124 | 58 | 214 | 0.9 | 3.5 | 0.00 | 0.00 | 0.00 | 38 | 1011.1 |
| 20260506113124 | 55 | 207 | 2.6 | 7.0 | 0.00 | 0.00 | 0.00 | 43 | 1011.2 |
| 20260506112124 | 58 | 268 | 1.7 | 5.2 | 0.00 | 0.00 | 0.00 | 39 | 1011.3 |
| 20260506111124 | 57 | 154 | 0.9 | 3.5 | 0.00 | 0.00 | 0.00 | 40 | 1011.2 |
| 20260506110125 | 54 | 100 | 0.9 | 4.3 | 0.00 | 0.00 | 0.00 | 44 | 1011.3 |
| 20260506105125 | 54 | 220 | 1.7 | 3.5 | 0.00 | 0.00 | 0.00 | 42 | 1011.4 |
| 20260506104125 | 58 | 230 | 0.9 | 4.3 | 0.00 | 0.00 | 0.00 | 39 | 1011.4 |
| 20260506103125 | 54 | 255 | 0.9 | 3.5 | 0.00 | 0.00 | 0.00 | 44 | 1011.5 |
| 20260506102124 | 60 | 128 | 0.0 | 1.7 | 0.00 | 0.00 | 0.00 | 39 | 1011.5 |
| 20260506101124 | 56 | 218 | 0.0 | 0.0 | 0.00 | 0.00 | 0.00 | 43 | 1011.6 |
| 20260506100126 | 54 | 210 | 0.9 | 2.6 | 0.00 | 0.00 | 0.00 | 48 | 1011.7 |
| 20260506095125 | 56 | 279 | 0.0 | 3.5 | 0.00 | 0.00 | 0.00 | 42 | 1011.6 |
| 20260506094125 | 56 | 131 | 0.9 | 2.6 | 0.00 | 0.00 | 0.00 | 43 | 1011.5 |
| 20260506093125 | 55 | 154 | 0.9 | 2.6 | 0.00 | 0.00 | 0.00 | 44 | 1011.6 |
| 20260506092125 | 55 | 168 | 0.9 | 2.6 | 0.00 | 0.00 | 0.00 | 42 | 1011.4 |
| 20260506091124 | 59 | 306 | 0.0 | 1.7 | 0.00 | 0.00 | 0.00 | 41 | 1011.4 |
| 20260506090124 | 56 | 261 | 0.0 | 2.6 | 0.00 | 0.00 | 0.00 | 43 | 1011.5 |
| 20260506085124 | 58 | 359 | 0.0 | 0.9 | 0.00 | 0.00 | 0.00 | 42 | 1011.4 |
| 20260506084123 | 58 | 359 | 0.0 | 0.9 | 0.00 | 0.00 | 0.00 | 38 | 1011.3 |
| 20260506082901 | 56 | 237 | 0.0 | 1.7 | 0.00 | 0.00 | 0.00 | 41 | 1011.4 |
| 20260506081901 | 55 | 280 | 0.0 | 0.9 | 0.00 | 0.00 | 0.00 | 49 | 1011.4 |
| 20260506080900 | 55 | 288 | 0.0 | 0.9 | 0.00 | 0.00 | 0.00 | 47 | 1011.4 |
| 20260506072901 | 49 | 292 | 0.0 | 0.0 | 0.00 | 0.00 | 0.00 | 66 | 1011.6 |
| 20260506071901 | 45 | 290 | 0.0 | 0.0 | 0.00 | 0.00 | 0.00 | 71 | 1011.7 |
| 20260506070901 | 43 | 290 | 0.0 | 0.0 | 0.00 | 0.00 | 0.00 | 73 | 1011.7 |
| 20260506061901 | 41 | 292 | 0.0 | 0.0 | 0.00 | 0.00 | 0.00 | 75 | 1011.5 |
| 20260506060900 | 41 | 292 | 0.0 | 0.0 | 0.00 | 0.00 | 0.00 | 75 | 1011.5 |
| 20260506050901 | 40 | 292 | 0.0 | 0.0 | 0.00 | 0.00 | 0.00 | 77 | 1011.2 |
| 20260506044859 | 39 | 292 | 0.0 | 0.0 | 0.00 | 0.00 | 0.00 | 78 | 1011.2 |
| 20260506043901 | 39 | 290 | 0.0 | 0.0 | 0.00 | 0.00 | 0.00 | 77 | 1011.2 |
| 20260506042900 | 39 | 292 | 0.0 | 0.0 | 0.00 | 0.00 | 0.00 | 77 | 1011.2 |
| 20260506042134 | 39 | 292 | 0.0 | 0.0 | 0.00 | 0.00 | 0.00 | 77 | 1011.2 |
| 20260506041134 | 39 | 289 | 0.0 | 0.0 | 0.00 | 0.00 | 0.00 | 77 | 1011.2 |
| 20260506040134 | 39 | 290 | 0.0 | 0.0 | 0.00 | 0.00 | 0.00 | 76 | 1011.2 |
| 20260506035133 | 40 | 289 | 0.0 | 0.0 | 0.00 | 0.00 | 0.00 | 74 | 1011.2 |
| 20260506034133 | 41 | 289 | 0.0 | 0.0 | 0.00 | 0.00 | 0.00 | 74 | 1011.2 |
| 20260506033135 | 41 | 290 | 0.0 | 0.0 | 0.00 | 0.00 | 0.00 | 76 | 1011.3 |
| 20260506032135 | 41 | 290 | 0.0 | 0.0 | 0.00 | 0.00 | 0.00 | 77 | 1011.3 |
| 20260506031134 | 41 | 288 | 0.0 | 0.0 | 0.00 | 0.00 | 0.00 | 78 | 1011.3 |
| 20260506030134 | 39 | 290 | 0.0 | 0.0 | 0.00 | 0.00 | 0.00 | 78 | 1011.2 |
| 20260506025134 | 40 | 289 | 0.0 | 0.0 | 0.00 | 0.00 | 0.00 | 78 | 1011.2 |
| 20260506024133 | 40 | 288 | 0.0 | 0.0 | 0.00 | 0.00 | 0.00 | 77 | 1011.1 |
| 20260506023133 | 40 | 289 | 0.0 | 0.0 | 0.00 | 0.00 | 0.00 | 76 | 1011.2 |
| 20260506022135 | 41 | 290 | 0.0 | 0.0 | 0.00 | 0.00 | 0.00 | 74 | 1011.2 |
| 20260506021134 | 42 | 290 | 0.0 | 0.0 | 0.00 | 0.00 | 0.00 | 74 | 1011.2 |
| 20260506020134 | 42 | 290 | 0.0 | 0.0 | 0.00 | 0.00 | 0.00 | 75 | 1011.2 |
| 20260506015132 | 42 | 290 | 0.0 | 0.0 | 0.00 | 0.00 | 0.00 | 75 | 1011.2 |
| 20260506014132 | 41 | 288 | 0.0 | 0.0 | 0.00 | 0.00 | 0.00 | 78 | 1011.3 |
| 20260506013133 | 42 | 288 | 0.0 | 0.0 | 0.00 | 0.00 | 0.00 | 74 | 1011.1 |
| 20260506012133 | 43 | 288 | 0.0 | 0.0 | 0.00 | 0.00 | 0.00 | 74 | 1011.1 |
| 20260506011133 | 42 | 290 | 0.0 | 0.0 | 0.00 | 0.00 | 0.00 | 76 | 1011.1 |
| 20260506010131 | 42 | 290 | 0.0 | 0.0 | 0.00 | 0.00 | 0.00 | 76 | 1011.2 |
| 20260506005133 | 42 | 289 | 0.0 | 0.0 | 0.00 | 0.00 | 0.00 | 75 | 1011.2 |
| 20260506004133 | 41 | 290 | 0.0 | 0.0 | 0.00 | 0.00 | 0.00 | 76 | 1011.4 |
| 20260506003133 | 41 | 290 | 0.0 | 0.0 | 0.00 | 0.00 | 0.00 | 77 | 1011.5 |
| 20260506002132 | 41 | 359 | 0.0 | 0.0 | 0.00 | 0.00 | 0.00 | 74 | 1011.4 |
| 20260506001132 | 45 | 359 | 0.0 | 0.0 | 0.00 | 0.00 | 0.00 | 68 | 1011.3 |
| 20260506000132 | 45 | 359 | 0.0 | 0.0 | 0.00 | 0.00 | 0.00 | 68 | 1011.4 |
| 20260505235131 | 45 | 359 | 0.0 | 0.0 | 0.00 | 0.00 | 0.00 | 69 | 1011.4 |
| 20260505234133 | 44 | 359 | 0.0 | 0.0 | 0.00 | 0.00 | 0.00 | 69 | 1011.4 |
| 20260505233133 | 45 | 359 | 0.0 | 0.0 | 0.00 | 0.00 | 0.00 | 68 | 1011.4 |
| 20260505232133 | 45 | 359 | 0.0 | 0.0 | 0.00 | 0.00 | 0.00 | 67 | 1011.5 |
| 20260505231133 | 46 | 359 | 0.0 | 0.0 | 0.00 | 0.00 | 0.00 | 66 | 1011.5 |
| 20260505230132 | 46 | 359 | 0.0 | 0.0 | 0.00 | 0.00 | 0.00 | 66 | 1011.6 |
| 20260505225132 | 45 | 359 | 0.0 | 0.0 | 0.00 | 0.00 | 0.00 | 67 | 1011.6 |
| 20260505224132 | 46 | 359 | 0.0 | 0.0 | 0.00 | 0.00 | 0.00 | 66 | 1011.5 |
| 20260505223133 | 46 | 359 | 0.0 | 0.0 | 0.00 | 0.00 | 0.00 | 67 | 1011.6 |
| 20260505222133 | 46 | 7 | 0.0 | 0.0 | 0.00 | 0.02 | 0.00 | 66 | 1011.7 |
| 20260505221133 | 45 | 6 | 0.0 | 0.9 | 0.00 | 0.02 | 0.00 | 66 | 1011.8 |
| 20260505220133 | 47 | 304 | 0.0 | 0.0 | 0.00 | 0.04 | 0.02 | 64 | 1011.7 |
| 20260505210133 | 46 | 325 | 0.0 | 1.7 | 0.00 | 0.18 | 0.02 | 65 | 1011.4 |
| 20260505205133 | 46 | 325 | 0.0 | 1.7 | 0.00 | 0.18 | 0.02 | 65 | 1011.4 |
| 20260505204132 | 46 | 320 | 0.0 | 2.6 | 0.00 | 0.18 | 0.02 | 65 | 1011.4 |
| 20260505203132 | 45 | 292 | 0.9 | 2.6 | 0.00 | 0.18 | 0.02 | 66 | 1011.3 |
| 20260505202133 | 45 | 279 | 1.7 | 4.3 | 0.00 | 0.18 | 0.02 | 65 | 1011.2 |
| 20260505201133 | 45 | 296 | 1.7 | 5.2 | 0.00 | 0.18 | 0.02 | 63 | 1011.1 |
| 20260505200132 | 47 | 318 | 1.7 | 6.1 | 0.00 | 0.18 | 0.02 | 62 | 1010.9 |
| 20260505195132 | 47 | 324 | 0.9 | 4.3 | 0.00 | 0.18 | 0.02 | 60 | 1010.9 |
| 20260505194132 | 48 | 286 | 0.9 | 3.5 | 0.00 | 0.18 | 0.02 | 60 | 1010.7 |
| 20260505193131 | 50 | 359 | 0.9 | 3.5 | 0.00 | 0.18 | 0.02 | 56 | 1010.5 |
| 20260505192133 | 51 | 309 | 0.0 | 2.6 | 0.00 | 0.18 | 0.02 | 54 | 1010.4 |
| 20260505191132 | 51 | 253 | 0.0 | 2.6 | 0.00 | 0.18 | 0.02 | 53 | 1010.3 |
| 20260505190132 | 52 | 318 | 0.0 | 1.7 | 0.00 | 0.18 | 0.02 | 52 | 1010.3 |